Time,TemperatureF,DewpointF,PressureIn,WindDirection,WindDirectionDegrees,WindSpeedMPH,WindSpeedGustMPH,Humidity,HourlyPrecipIn,Conditions,Clouds,dailyrainin,SoftwareType,DateUTC
2013-04-03 00:05:00,30.2,19.0,30.35,NNW,329,4.0,5.0,64,0.00,,,0.00,weatherlink.com 1.10,2013-04-03 05:05:00,
2013-04-03 00:20:00,29.7,19.0,30.35,NNW,329,3.0,6.0,64,0.00,,,0.00,weatherlink.com 1.10,2013-04-03 05:20:00,
2013-04-03 00:35:00,29.6,19.0,30.35,NNW,329,4.0,5.0,64,0.00,,,0.00,weatherlink.com 1.10,2013-04-03 05:35:00,
2013-04-03 00:50:00,29.8,19.0,30.35,NNW,329,3.0,5.0,64,0.00,,,0.00,weatherlink.com 1.10,2013-04-03 05:50:00,
2013-04-03 01:05:00,29.1,19.0,30.36,NNW,329,3.0,6.0,65,0.00,,,0.00,weatherlink.com 1.10,2013-04-03 06:05:00,
2013-04-03 01:20:00,28.6,18.0,30.35,NNW,329,2.0,5.0,66,0.00,,,0.00,weatherlink.com 1.10,2013-04-03 06:20:00,
2013-04-03 01:35:00,28.6,19.0,30.36,NNW,329,3.0,5.0,67,0.00,,,0.00,weatherlink.com 1.10,2013-04-03 06:35:00,
2013-04-03 01:50:00,27.4,19.0,30.36,NNW,329,3.0,3.0,70,0.00,,,0.00,weatherlink.com 1.10,2013-04-03 06:50:00,
2013-04-03 02:05:00,27.0,19.0,30.36,NNW,329,3.0,4.0,71,0.00,,,0.00,weatherlink.com 1.10,2013-04-03 07:05:00,
2013-04-03 02:20:00,27.2,19.0,30.36,NNW,329,5.0,5.0,71,0.00,,,0.00,weatherlink.com 1.10,2013-04-03 07:20:00,
2013-04-03 02:35:00,26.9,19.0,30.36,NNW,329,4.0,5.0,72,0.00,,,0.00,weatherlink.com 1.10,2013-04-03 07:35:00,
2013-04-03 02:50:00,26.6,19.0,30.36,NNW,329,2.0,4.0,73,0.00,,,0.00,weatherlink.com 1.10,2013-04-03 07:50:00,
2013-04-03 03:05:00,26.3,19.0,30.36,NNW,329,3.0,4.0,73,0.00,,,0.00,weatherlink.com 1.10,2013-04-03 08:05:00,
2013-04-03 03:20:00,26.3,19.0,30.36,NNW,329,4.0,4.0,73,0.00,,,0.00,weatherlink.com 1.10,2013-04-03 08:20:00,
2013-04-03 03:35:00,26.0,18.0,30.36,NNW,329,3.0,4.0,73,0.00,,,0.00,weatherlink.com 1.10,2013-04-03 08:35:00,
2013-04-03 03:50:00,26.1,19.0,30.37,NNW,329,3.0,5.0,73,0.00,,,0.00,weatherlink.com 1.10,2013-04-03 08:50:00,
2013-04-03 04:20:00,25.1,18.0,30.38,NNW,329,1.0,2.0,75,0.00,,,0.00,weatherlink.com 1.10,2013-04-03 09:20:00,
2013-04-03 04:35:00,24.8,18.0,30.38,NNW,329,1.0,3.0,75,0.00,,,0.00,weatherlink.com 1.10,2013-04-03 09:35:00,
2013-04-03 04:50:00,25.0,18.0,30.38,NNW,329,3.0,3.0,75,0.00,,,0.00,weatherlink.com 1.10,2013-04-03 09:50:00,
2013-04-03 05:05:00,24.7,18.0,30.38,NNW,329,3.0,5.0,77,0.00,,,0.00,weatherlink.com 1.10,2013-04-03 10:05:00,
2013-04-03 05:20:00,24.4,18.0,30.38,NNW,329,2.0,5.0,77,0.00,,,0.00,weatherlink.com 1.10,2013-04-03 10:20:00,
2013-04-03 05:35:00,24.4,18.0,30.39,NNW,344,3.0,5.0,78,0.00,,,0.00,weatherlink.com 1.10,2013-04-03 10:35:00,
2013-04-03 05:50:00,24.0,18.0,30.39,NNW,344,2.0,4.0,78,0.00,,,0.00,weatherlink.com 1.10,2013-04-03 10:50:00,
2013-04-03 06:05:00,23.8,18.0,30.39,NNW,344,0.0,2.0,78,0.00,,,0.00,weatherlink.com 1.10,2013-04-03 11:05:00,
2013-04-03 06:21:00,23.9,18.0,30.39,NNW,344,4.0,5.0,79,0.00,,,0.00,weatherlink.com 1.10,2013-04-03 11:21:00,
2013-04-03 06:36:00,23.7,18.0,30.40,NNW,344,3.0,3.0,78,0.00,,,0.00,weatherlink.com 1.10,2013-04-03 11:36:00,
2013-04-03 06:51:00,23.9,18.0,30.41,NNW,344,0.0,3.0,78,0.00,,,0.00,weatherlink.com 1.10,2013-04-03 11:51:00,
2013-04-03 07:06:00,24.2,18.0,30.42,NNW,344,2.0,3.0,78,0.00,,,0.00,weatherlink.com 1.10,2013-04-03 12:06:00,
2013-04-03 07:21:00,24.7,19.0,30.43,NNW,344,0.0,3.0,78,0.00,,,0.00,weatherlink.com 1.10,2013-04-03 12:21:00,
2013-04-03 07:51:00,25.6,19.0,30.45,NNW,344,0.0,0.0,77,0.00,,,0.00,weatherlink.com 1.10,2013-04-03 12:51:00,
2013-04-03 09:06:00,33.1,22.0,30.47,ENE,77,1.0,7.0,63,0.00,,,0.00,weatherlink.com 1.10,2013-04-03 14:06:00,
2013-04-03 09:21:00,35.3,20.0,30.46,NE,53,1.0,10.0,54,0.00,,,0.00,weatherlink.com 1.10,2013-04-03 14:21:00,
2013-04-03 09:37:00,37.1,19.0,30.46,ESE,107,4.0,13.0,48,0.00,,,0.00,weatherlink.com 1.10,2013-04-03 14:37:00,
2013-04-03 09:51:00,37.5,19.0,30.47,East,90,7.0,12.0,47,0.00,,,0.00,weatherlink.com 1.10,2013-04-03 14:51:00,
2013-04-03 10:06:00,38.8,19.0,30.46,ESE,115,3.0,10.0,45,0.00,,,0.00,weatherlink.com 1.10,2013-04-03 15:06:00,
2013-04-03 10:21:00,40.2,18.0,30.46,ENE,65,4.0,10.0,41,0.00,,,0.00,weatherlink.com 1.10,2013-04-03 15:21:00,
2013-04-03 10:36:00,40.9,16.0,30.46,SE,136,7.0,13.0,37,0.00,,,0.00,weatherlink.com 1.10,2013-04-03 15:36:00,
2013-04-03 10:51:00,41.9,17.0,30.47,East,84,5.0,11.0,36,0.00,,,0.00,weatherlink.com 1.10,2013-04-03 15:51:00,
2013-04-03 11:06:00,43.0,16.0,30.46,ESE,122,3.0,8.0,34,0.00,,,0.00,weatherlink.com 1.10,2013-04-03 16:06:00,
2013-04-03 11:36:00,43.1,17.0,30.45,ENE,57,8.0,11.0,35,0.00,,,0.00,weatherlink.com 1.10,2013-04-03 16:36:00,
2013-04-03 11:51:00,44.8,16.0,30.44,ESE,106,7.0,12.0,31,0.00,,,0.00,weatherlink.com 1.10,2013-04-03 16:51:00,
2013-04-03 12:07:00,46.0,17.0,30.43,ENE,63,5.0,10.0,31,0.00,,,0.00,weatherlink.com 1.10,2013-04-03 17:07:00,
2013-04-03 12:22:00,46.7,16.0,30.43,NNE,20,3.0,13.0,29,0.00,,,0.00,weatherlink.com 1.10,2013-04-03 17:22:00,
2013-04-03 12:37:00,47.3,18.0,30.42,SE,125,7.0,13.0,31,0.00,,,0.00,weatherlink.com 1.10,2013-04-03 17:37:00,
2013-04-03 12:52:00,48.4,16.0,30.41,ESE,105,2.0,12.0,28,0.00,,,0.00,weatherlink.com 1.10,2013-04-03 17:52:00,
2013-04-03 13:07:00,49.1,17.0,30.40,SE,132,3.0,12.0,28,0.00,,,0.00,weatherlink.com 1.10,2013-04-03 18:07:00,
2013-04-03 13:22:00,50.3,17.0,30.39,East,100,2.0,13.0,27,0.00,,,0.00,weatherlink.com 1.10,2013-04-03 18:22:00,
2013-04-03 13:37:00,50.8,18.0,30.39,NE,41,3.0,9.0,27,0.00,,,0.00,weatherlink.com 1.10,2013-04-03 18:37:00,
2013-04-03 13:52:00,51.8,16.0,30.38,ENE,78,2.0,10.0,24,0.00,,,0.00,weatherlink.com 1.10,2013-04-03 18:52:00,
2013-04-03 14:07:00,53.3,15.0,30.38,ENE,59,1.0,13.0,22,0.00,,,0.00,weatherlink.com 1.10,2013-04-03 19:07:00,
2013-04-03 14:22:00,54.0,17.0,30.37,ENE,57,0.0,12.0,23,0.00,,,0.00,weatherlink.com 1.10,2013-04-03 19:22:00,
2013-04-03 14:37:00,54.4,17.0,30.37,SSE,147,2.0,11.0,23,0.00,,,0.00,weatherlink.com 1.10,2013-04-03 19:37:00,
2013-04-03 14:52:00,55.1,17.0,30.37,ESE,117,7.0,13.0,22,0.00,,,0.00,weatherlink.com 1.10,2013-04-03 19:52:00,
2013-04-03 15:07:00,55.4,16.0,30.37,SE,138,6.0,10.0,21,0.00,,,0.00,weatherlink.com 1.10,2013-04-03 20:07:00,
2013-04-03 15:22:00,56.3,16.0,30.36,ESE,121,1.0,8.0,20,0.00,,,0.00,weatherlink.com 1.10,2013-04-03 20:22:00,
2013-04-03 15:37:00,55.0,17.0,30.36,North,10,5.0,11.0,22,0.00,,,0.00,weatherlink.com 1.10,2013-04-03 20:37:00,
2013-04-03 15:52:00,55.6,16.0,30.35,SE,130,5.0,13.0,21,0.00,,,0.00,weatherlink.com 1.10,2013-04-03 20:52:00,
2013-04-03 16:07:00,56.9,16.0,30.35,SSE,161,3.0,9.0,20,0.00,,,0.00,weatherlink.com 1.10,2013-04-03 21:07:00,
2013-04-03 16:22:00,56.9,16.0,30.35,East,88,3.0,8.0,20,0.00,,,0.00,weatherlink.com 1.10,2013-04-03 21:22:00,
2013-04-03 16:37:00,58.3,17.0,30.34,SE,134,4.0,8.0,20,0.00,,,0.00,weatherlink.com 1.10,2013-04-03 21:37:00,
2013-04-03 16:52:00,56.3,16.0,30.34,ESE,116,4.0,11.0,20,0.00,,,0.00,weatherlink.com 1.10,2013-04-03 21:52:00,
2013-04-03 17:07:00,55.5,14.0,30.34,ESE,119,4.0,13.0,19,0.00,,,0.00,weatherlink.com 1.10,2013-04-03 22:07:00,
2013-04-03 17:22:00,55.9,14.0,30.33,SSE,163,10.0,13.0,19,0.00,,,0.00,weatherlink.com 1.10,2013-04-03 22:22:00,
2013-04-03 17:37:00,54.4,15.0,30.33,ESE,119,7.0,9.0,21,0.00,,,0.00,weatherlink.com 1.10,2013-04-03 22:37:00,
2013-04-03 17:52:00,54.5,15.0,30.33,SE,146,4.0,8.0,21,0.00,,,0.00,weatherlink.com 1.10,2013-04-03 22:52:00,
2013-04-03 18:07:00,54.3,16.0,30.33,ESE,116,1.0,10.0,22,0.00,,,0.00,weatherlink.com 1.10,2013-04-03 23:07:00,
2013-04-03 18:22:00,53.9,16.0,30.33,SSE,154,6.0,9.0,22,0.00,,,0.00,weatherlink.com 1.10,2013-04-03 23:22:00,
2013-04-03 18:37:00,51.9,16.0,30.33,SE,129,4.0,9.0,24,0.00,,,0.00,weatherlink.com 1.10,2013-04-03 23:37:00,
2013-04-03 18:52:00,50.3,16.0,30.32,SE,141,2.0,9.0,26,0.00,,,0.00,weatherlink.com 1.10,2013-04-03 23:52:00,
2013-04-03 19:07:00,49.5,17.0,30.32,SE,142,0.0,3.0,28,0.00,,,0.00,weatherlink.com 1.10,2013-04-04 00:07:00,
2013-04-03 19:22:00,48.6,17.0,30.32,SE,142,0.0,2.0,28,0.00,,,0.00,weatherlink.com 1.10,2013-04-04 00:22:00,
2013-04-03 19:37:00,47.3,17.0,30.32,SE,142,0.0,2.0,30,0.00,,,0.00,weatherlink.com 1.10,2013-04-04 00:37:00,
2013-04-03 19:52:00,46.2,17.0,30.32,SE,142,0.0,3.0,31,0.00,,,0.00,weatherlink.com 1.10,2013-04-04 00:52:00,
2013-04-03 20:07:00,45.2,18.0,30.31,SE,142,1.0,1.0,34,0.00,,,0.00,weatherlink.com 1.10,2013-04-04 01:07:00,
2013-04-03 20:22:00,44.3,18.0,30.31,SE,142,0.0,1.0,35,0.00,,,0.00,weatherlink.com 1.10,2013-04-04 01:22:00,
2013-04-03 20:37:00,43.8,18.0,30.32,SE,142,0.0,1.0,36,0.00,,,0.00,weatherlink.com 1.10,2013-04-04 01:37:00,
2013-04-03 20:52:00,43.3,20.0,30.32,SE,142,0.0,1.0,40,0.00,,,0.00,weatherlink.com 1.10,2013-04-04 01:52:00,
2013-04-03 21:07:00,42.4,21.0,30.32,SE,142,0.0,1.0,42,0.00,,,0.00,weatherlink.com 1.10,2013-04-04 02:07:00,
2013-04-03 21:22:00,41.1,20.0,30.32,SE,142,0.0,1.0,43,0.00,,,0.00,weatherlink.com 1.10,2013-04-04 02:22:00,
2013-04-03 21:37:00,40.4,21.0,30.32,SE,142,0.0,1.0,47,0.00,,,0.00,weatherlink.com 1.10,2013-04-04 02:37:00,
2013-04-03 21:52:00,40.0,22.0,30.32,SE,142,0.0,1.0,48,0.00,,,0.00,weatherlink.com 1.10,2013-04-04 02:52:00,
2013-04-03 22:07:00,39.7,23.0,30.32,SE,142,0.0,1.0,51,0.00,,,0.00,weatherlink.com 1.10,2013-04-04 03:07:00,
2013-04-03 22:22:00,39.0,23.0,30.32,SE,142,0.0,0.0,53,0.00,,,0.00,weatherlink.com 1.10,2013-04-04 03:22:00,
2013-04-03 22:37:00,38.4,23.0,30.32,SE,142,0.0,0.0,54,0.00,,,0.00,weatherlink.com 1.10,2013-04-04 03:37:00,
2013-04-03 22:52:00,37.9,23.0,30.32,SE,142,0.0,0.0,56,0.00,,,0.00,weatherlink.com 1.10,2013-04-04 03:52:00,
2013-04-03 23:07:00,37.4,23.0,30.31,SE,142,0.0,1.0,57,0.00,,,0.00,weatherlink.com 1.10,2013-04-04 04:07:00,
2013-04-03 23:22:00,36.8,24.0,30.31,SE,142,0.0,1.0,59,0.00,,,0.00,weatherlink.com 1.10,2013-04-04 04:22:00,
2013-04-03 23:37:00,36.3,23.0,30.31,SE,142,0.0,1.0,59,0.00,,,0.00,weatherlink.com 1.10,2013-04-04 04:37:00,
2013-04-03 23:53:00,36.0,23.0,30.31,SE,142,0.0,0.0,59,0.00,,,0.00,weatherlink.com 1.10,2013-04-04 04:53:00,